User: anonymous   Login
Location: Chillicothe
(39.7950°N, 93.5520°W)
Time: 18:05:08
(UTC-06:00)
Language:

NOAA 19 - Orbit

View from above orbital plane
View from above orbital plane
View from above satellite
View from above satellite

Ground track
Ground track

The orbit data is extracted from the following two-line orbital elements,

1 33591U 09005A   19320.58235458  .00000004  00000-0  27839-4 0  9997
2 33591  99.1903 315.4331 0013371 318.7301  41.2858 14.12383500555204
Epoch (UTC): 16 November 2019 13:58:35
Eccentricity: 0.0013371
inclination: 99.1903°
perigee height: 841 km
apogee height: 861 km
right ascension of ascending node: 315.4331°
argument of perigee: 318.7301°
revolutions per day: 14.12383500
mean anomaly at epoch: 41.2858°
orbit number at epoch: 55520

The dashed part of the orbit path shows where the satellite is in the earth's shadow,  

DLR